Home > Time Zones > World Clock > Weather > Norway > Oslo > Past weeks

Flag for Norway Weather past 2 weeks in Oslo, Norway

Now
41 °F

Quite cool.


Feels Like: 36 °F
Forecast: 36 / 51 °F
Wind: 7 mph from South

Location: Oslo-Blindern

Current Time: Mar 7, 2015 at 2:59:04 AM

Latest Report: Mar 7, 2015 at 2:00 AM


Visibility: N/A

Pressure: 29.93 "Hg

Humidity: 88%

Dew point: 38 °F

Location of OsloLocation

Historic Weather in Oslo — Graph

°F

Oslo temperature yesterday

Maximum temperature yesterday: 49 °F (at 3:00 PM)
Minimum temperature yesterday: 37 °F (at 8:00 AM)
Average temperature yesterday: 41 °F

Past Weeks' High & Low Weather Summary

 TemperatureHumidityPressure
High49 °F (Mar 6, 3:00 PM)99% (Feb 22, 3:00 AM)30.29 "Hg (Feb 22, 3:00 AM)
Low24 °F (Mar 4, 6:00 AM)37% (Feb 22, 4:00 PM)28.97 "Hg (Feb 23, 2:00 PM)
Average36 °F86%29.54 "Hg
* Reported Feb 20 1:00 AM — Mar 7 1:00 AM, Oslo, Weather by CustomWeather, © 2015

Note: Actual official high and low records may vary slightly from our data, if they occured in-between our weather recording intervals... More about our weather records

Advertising

Oslo weather history for previous 24 hours

 ConditionsComfort  
Time TempWeatherWind HumidityBarometerVisibility
1:00 AM
Sat, Mar 7
41 °FLow clouds.6 mph89%29.97 "Hg9 mi
12:00 AM40 °FQuite cool.6 mph92%30.02 "HgN/A
11:00 PM
Fri, Mar 6
41 °FQuite cool.6 mph87%30.05 "HgN/A
9:00 PM39 °FChilly.2 mph69%30.09 "HgN/A
8:00 PM41 °FQuite cool.2 mph63%30.11 "HgN/A
7:00 PM39 °FOvercast.1 mph68%30.14 "Hg43 mi
6:00 PM42 °FQuite cool.2 mph56%30.14 "HgN/A
5:00 PM46 °FCool.2 mph46%30.15 "HgN/A
4:00 PM47 °FPassing clouds.3 mph45%30.14 "Hg43 mi
3:00 PM49 °FCool.2 mph40%30.14 "HgN/A
2:00 PM48 °FCool.3 mph41%30.16 "HgN/A
1:00 PM46 °FOvercast.1 mph44%30.13 "Hg47 mi
12:00 PM45 °FCool.2 mph57%30.17 "HgN/A
11:00 AM45 °FQuite cool.2 mph65%30.14 "HgN/A
10:00 AM40 °FScattered clouds.1 mph86%30.14 "Hg43 mi
9:00 AM38 °FChilly.2 mph93%30.13 "HgN/A
8:00 AM37 °FChilly.1 mph93%30.09 "HgN/A
7:00 AM38 °FLow clouds.1 mph92%30.10 "Hg34 mi
6:00 AM38 °FChilly.1 mph93%30.09 "HgN/A
5:00 AM38 °FChilly.2 mph94%30.06 "HgN/A
4:00 AM38 °FOvercast.2 mph92%30.06 "Hg40 mi
3:00 AM39 °FChilly.3 mph92%30.07 "HgN/A
2:00 AM39 °FChilly.3 mph92%30.07 "HgN/A
Weather by CustomWeather, © 2015

See weather overviewHow to use our weather pages